Weather History for Scappoose, OR

Change the Weather History Date:

Sunday, September 15, 2013

  Actual Average Record
Temperature  
Mean Temperature 63 °F -  
Max Temperature 66 °F - 91 °F (2008)
Min Temperature 60 °F - 44 °F (2003)
Degree Days  
Heating Degree Days 2    
Month to date heating degree days 2  
Since 1 July heating degree days 26  
Cooling Degree Days 0    
Month to date cooling degree days 72  
Year to date cooling degree days 396  
Growing Degree Days 13 (Base 50)    
Moisture  
Dew Point 60 °F    
Average Humidity 91    
Maximum Humidity 100    
Minimum Humidity 81    
Precipitation  
Precipitation 0.07 in - 0.16 in (2006)
Month to date precipitation 2.03  
Year to date precipitation 16.57  
Sea Level Pressure  
Sea Level Pressure 29.80 in    
Wind  
Wind Speed 2 mph (ENE)    
Max Wind Speed 10 mph    
Max Gust Speed 13 mph    
Visibility 7 miles    
Events Rain , Thunderstorm    
T = Trace of Precipitation, MM = Missing Value Source: NWS Daily Summary

Daily Weather History Graph

Daily Weather History Graph

Search for Another Location

Airport:

Trip Planner

Search our weather history database for the weather conditions in past years. The results will help you decide how hot, cold, wet, or windy it might be!

Date:

Astronomy

Sep. 15, 2013 Rise Set
Actual Time 6:50 AM PDT 7:21 PM PDT
Civil Twilight 6:20 AM PDT 7:51 PM PDT
Nautical Twilight 5:44 AM PDT 8:27 PM PDT
Astronomical Twilight 5:08 AM PDT 9:03 PM PDT
Moon 5:02 PM PDT (9/15) 2:23 AM PDT (9/15)
Length of Visible Light 13h 31m
Length of Day
12h 31m
Waxing Gibbous, 83% of the Moon is Illuminated
Sep 15
Waxing Gibbous
Sep 19
Full
Sep 26
Last Quarter
Oct 4
New
Oct 11
First Quarter

Hourly Weather History & Observations

Time (PDT) Temp. Dew Point Humidity Pressure Visibility Wind Dir Wind Speed Gust Speed Precip Events Conditions
12:53 AM 66.0 °F 60.1 °F 81% 29.71 in 10.0 mi NNW 4.6 mph - N/A   Clear
1:53 AM 64.0 °F 59.0 °F 84% 29.71 in 10.0 mi North 4.6 mph - N/A   Clear
2:53 AM 63.0 °F 59.0 °F 87% 29.72 in 10.0 mi North 4.6 mph - N/A   Clear
3:34 AM 62.6 °F 59.0 °F 88% 29.72 in 10.0 mi North 4.6 mph - N/A   Mostly Cloudy
3:53 AM 63.0 °F 59.0 °F 87% 29.73 in 10.0 mi NNW 9.2 mph - N/A   Overcast
4:53 AM 63.0 °F 57.9 °F 84% 29.73 in 10.0 mi NNW 6.9 mph - N/A   Overcast
5:53 AM 63.0 °F 57.0 °F 81% 29.73 in 10.0 mi NNW 5.8 mph - N/A   Overcast
6:28 AM 62.6 °F 57.2 °F 82% 29.73 in 10.0 mi NNW 4.6 mph - N/A   Overcast
6:53 AM 62.1 °F 57.9 °F 86% 29.74 in 10.0 mi Calm Calm - N/A   Overcast
7:53 AM 61.0 °F 59.0 °F 93% 29.75 in 2.5 mi Calm Calm - N/A   Overcast
8:33 AM 60.8 °F 59.0 °F 94% 29.75 in 1.8 mi NW 3.5 mph - N/A   Overcast
8:40 AM 60.8 °F 59.0 °F 94% 29.74 in 2.5 mi North 4.6 mph - N/A   Overcast
8:53 AM 61.0 °F 59.0 °F 93% 29.75 in 3.0 mi Calm Calm - N/A   Overcast
9:53 AM 62.1 °F 59.0 °F 90% 29.77 in 3.0 mi Calm Calm - N/A   Overcast
10:03 AM 62.6 °F 60.8 °F 94% 29.77 in 5.0 mi Calm Calm - 0.01 in   Overcast
10:15 AM 62.6 °F 60.8 °F 94% 29.77 in 5.0 mi Calm Calm - 0.01 in Thunderstorm Overcast
10:25 AM 62.6 °F 60.8 °F 94% 29.77 in 3.0 mi East 3.5 mph - 0.01 in Thunderstorm Overcast
10:49 AM 62.6 °F 60.8 °F 94% 29.78 in 1.8 mi East 3.5 mph - 0.01 in   Overcast
10:50 AM 62.1 °F 60.1 °F 93% 29.78 in 1.8 mi East 4.6 mph - 0.01 in   Overcast
11:05 AM 62.6 °F 60.8 °F 94% 29.78 in 2.5 mi SE 3.5 mph - N/A   Overcast
11:16 AM 62.6 °F 60.8 °F 94% 29.78 in 1.5 mi SSE 3.5 mph - 0.01 in Rain Light Rain
11:27 AM 62.6 °F 60.8 °F 94% 29.78 in 2.0 mi SSE 3.5 mph - 0.01 in Thunderstorm Overcast
11:37 AM 62.6 °F 60.8 °F 94% 29.79 in 2.5 mi Calm Calm - 0.01 in Thunderstorm Overcast
11:46 AM 62.6 °F 60.8 °F 94% 29.78 in 3.0 mi Calm Calm - 0.01 in Thunderstorm Overcast
11:53 AM 62.1 °F 60.1 °F 93% 29.78 in 3.0 mi Calm Calm - 0.01 in   Overcast
12:03 PM 62.6 °F 60.8 °F 94% 29.79 in 2.5 mi East 3.5 mph - 0.01 in Rain Light Rain
12:19 PM 62.6 °F 60.8 °F 94% 29.79 in 2.5 mi Calm Calm - 0.01 in Thunderstorm Overcast
12:28 PM 62.6 °F 60.8 °F 94% 29.79 in 2.5 mi South 4.6 mph - 0.01 in   Overcast
12:39 PM 62.6 °F 60.8 °F 94% 29.79 in 1.8 mi Calm Calm - 0.01 in   Overcast
12:46 PM 62.6 °F 60.8 °F 94% 29.79 in 3.0 mi Calm Calm - 0.01 in   Overcast
12:53 PM 63.0 °F 60.1 °F 90% 29.79 in 4.0 mi Calm Calm - 0.01 in   Overcast
1:01 PM 62.6 °F 60.8 °F 94% 29.79 in 10.0 mi Calm Calm - N/A   Overcast
1:45 PM 64.4 °F 60.8 °F 88% 29.79 in 10.0 mi SSE 3.5 mph - N/A   Overcast
1:53 PM 64.0 °F 60.1 °F 87% 29.80 in 10.0 mi SSE 5.8 mph - N/A   Overcast
2:12 PM 64.4 °F 60.8 °F 88% 29.79 in 10.0 mi South 3.5 mph - N/A   Overcast
2:53 PM 64.9 °F 60.1 °F 84% 29.80 in 10.0 mi SSE 6.9 mph - N/A   Overcast
3:53 PM 64.9 °F 60.1 °F 84% 29.81 in 10.0 mi Calm Calm - N/A   Overcast
4:23 PM 66.2 °F 60.8 °F 83% 29.80 in 10.0 mi SE 3.5 mph - N/A   Overcast
4:53 PM 66.0 °F 60.1 °F 81% 29.80 in 10.0 mi SE 3.5 mph - N/A   Overcast
5:07 PM 66.2 °F 60.8 °F 83% 29.80 in 10.0 mi SE 3.5 mph - N/A   Overcast
5:31 PM 64.4 °F 60.8 °F 88% 29.80 in 2.0 mi Calm Calm - 0.01 in Rain Light Rain
5:53 PM 64.0 °F 61.0 °F 90% 29.81 in 1.8 mi NW 3.5 mph - 0.03 in Rain Light Rain
6:02 PM 64.4 °F 60.8 °F 88% 29.81 in 3.0 mi NNW 3.5 mph - 0.00 in Rain Light Rain
6:09 PM 64.4 °F 60.8 °F 88% 29.81 in 10.0 mi NNE 3.5 mph - 0.00 in   Overcast
6:45 PM 64.4 °F 60.8 °F 88% 29.83 in 10.0 mi Calm Calm - 0.00 in   Overcast
6:53 PM 64.0 °F 61.0 °F 90% 29.83 in 10.0 mi Calm Calm - 0.00 in   Overcast
7:39 PM 62.6 °F 60.8 °F 94% 29.83 in 10.0 mi Calm Calm - 0.00 in   Overcast
7:53 PM 63.0 °F 61.0 °F 93% 29.83 in 10.0 mi Calm Calm - 0.00 in   Overcast
8:53 PM 63.0 °F 61.0 °F 93% 29.86 in 10.0 mi Calm Calm - 0.01 in   Overcast
9:13 PM 62.6 °F 60.8 °F 94% 29.86 in 10.0 mi Calm Calm - N/A   Overcast
9:21 PM 62.6 °F 60.8 °F 94% 29.86 in 10.0 mi Calm Calm - N/A   Overcast
9:35 PM 62.6 °F 60.8 °F 94% 29.85 in 10.0 mi Calm Calm - N/A   Overcast
9:48 PM 62.6 °F 60.8 °F 94% 29.85 in 10.0 mi Calm Calm - N/A   Overcast
9:53 PM 63.0 °F 61.0 °F 93% 29.86 in 10.0 mi Calm Calm - N/A   Overcast
9:59 PM 62.6 °F 60.8 °F 94% 29.86 in 10.0 mi Calm Calm - N/A   Overcast
10:13 PM 62.6 °F 60.8 °F 94% 29.85 in 10.0 mi Calm Calm - N/A   Overcast
10:27 PM 62.6 °F 60.8 °F 94% 29.86 in 10.0 mi Calm Calm - N/A   Overcast
10:32 PM 62.6 °F 60.8 °F 94% 29.86 in 10.0 mi Calm Calm - N/A   Overcast
10:53 PM 63.0 °F 61.0 °F 93% 29.86 in 10.0 mi Calm Calm - N/A   Overcast
11:21 PM 62.6 °F 60.8 °F 94% 29.86 in 10.0 mi Calm Calm - N/A   Overcast
11:49 PM 60.8 °F 60.8 °F 100% 29.86 in 10.0 mi Calm Calm - N/A   Overcast
11:53 PM 61.0 °F 60.1 °F 97% 29.87 in 10.0 mi Calm Calm - N/A   Overcast